PSLV R/B

Satellite information

Favourite Embed

Satellite Type and Status

ROCKET BODYIN ORBIT

Key statistics

Satellite PSLV R/B at a glance.

Uptime

7934

Days in orbit

Revolutions

≈ 14.2

Per day

Orbit

SSO

Sun Synchronous Orbit

Inclination

99.0

Latest

Satellite identification and parameters

Extended collection of information and parameters for PSLV R/B.

Object identification

Identified? True

Debris? False

Object name: PSLV R/B

International designator: 2003-046B

Object number (NORAD): 28050

Object ID (CCSDS): 28050

Country: INDIA (IND)

Current information (Y/N): Y

RCS size: LARGE

Orbital parameters

Period: 101.589 minutes

Inclination: 99.0174 deg

SMA: 7212.05 km

Apoapsis: 870.592 km

Periapsis: 797.238 km

RAAN: 155.7871 deg

Eccentricy: 0.0050855

Argument of periapsis: 170.8909 deg

Mean anomaly: 243.8806 deg

Mean motion: 14.17472584 rev/day

Mean motion (dot): 0.00000066 rev/day2

B* drag term: 0.000054569 1/REarth

Two-line elements (TLE)

Creation date: July 6, 2025, 10:26 p.m.

Reference frame: TEME

Reference center: EARTH

Epoch: July 6, 2025, 9:17 p.m. UTC

TLE line 0: 0 PSLV R/B

TLE line 1: 1 28050U 03046B 25187.88717708 .00000066 00000-0 54569-4 0 9992

TLE line 2: 2 28050 99.0174 155.7871 0050855 170.8909 243.8806 14.17472584123187

Live tracking on map

Real-time ground track for satellite PSLV R/B.

In-orbit conjunctions

A list of the most updated potential collisions computed for object PSLV R/B.

Target Orbit TCA Probability of collision Miss distance Type
CZ-3B R/B MEO 2025-04-28 10:07:42 0.0008428463 142.0 (m) ROCKET BODY
NOAA 7 SSO 2025-03-04 01:20:44 0.0001157484 981.0 (m) PAYLOAD
FENGYUN 1C DEB SSO 2024-12-16 01:15:15 0.0001468252 346.0 (m) DEBRIS

Associated space launch

The Resourcesat-1 satellite was launched to ensure systematic and repetitive coverage of the earth’s surface.

PSLV R/B was lifted into orbit during the mission ‘PSLV | Resourcesat’, on board a PSLV space rocket.

The launch took place on Oct. 17, 2003, 4:52 a.m. from Satish Dhawan Space Centre First Launch Pad.

For more information about the launch, click the button.

Launch to space PSLV | Resourcesat
PSLV | Resourcesat

Agency: N/A

Status: Launch Successful

Launch date: Oct. 17, 2003, 4:52 a.m. UTC

Rocket: PSLV

Launch pad: Satish Dhawan Space Centre First Launch Pad

Location: Satish Dhawan Space Centre, India

...

Latest news about this satellite

There are no fresh news available about this satellite. Check back as we update our databases every day.


Newsletter sign-up

Weekly statistics, charts and insights to help you stay on top of the space industry.